Simultaneous Nadir Overpasses (SNOs) Predictions

Prediction of SNOs between GOES-17 and METOP-C Satellite Orbit:

Table of predicted SNOs for the next 14.0 days since TLE Epoch: 4/20/2024
Index Date Time (GOES-17) GOES-17 Lat,Lon METOP-C Lat,Lon Distance(km) Time Diff (sec)
1 04/21/2024 04:44:22 -0.00,-104.69 -0.82,-108.27 407.30 80
2 04/22/2024 04:21:04 -0.01,-104.70 0.29,-103.27 161.96 80
3 04/23/2024 16:39:58 0.01,-104.71 0.69,-107.84 357.13 80
4 04/24/2024 16:22:00 0.01,-104.71 -0.43,-102.85 212.29 80
5 04/26/2024 04:41:00 -0.02,-104.70 -0.62,-107.44 311.27 80
6 04/27/2024 04:17:42 -0.01,-104.70 0.51,-102.45 257.53 80
7 04/28/2024 16:36:35 -0.00,-104.70 0.50,-107.01 262.60 80
8 04/29/2024 16:18:35 -0.01,-104.70 -0.59,-102.01 306.18 80
9 05/01/2024 04:37:36 0.02,-104.69 -0.44,-106.60 217.80 80
10 05/02/2024 04:14:17 0.02,-104.69 0.71,-101.61 351.07 80
11 05/03/2024 16:33:10 -0.02,-104.69 0.32,-106.17 168.35 80
